Time,TemperatureF,DewpointF,PressureIn,WindDirection,WindDirectionDegrees,WindSpeedMPH,WindSpeedGustMPH,Humidity,HourlyPrecipIn,Conditions,Clouds,dailyrainin,SoftwareType,DateUTC
2013-05-10 00:01:00,51.4,49.5,30.17,NE,46,6.0,6.0,93,0.00,,,0.00,meteohub,2013-05-09 11:01:00,
2013-05-10 00:06:00,50.5,48.6,30.17,NE,46,8.0,8.0,93,0.00,,,0.00,meteohub,2013-05-09 11:06:00,
2013-05-10 00:11:00,49.8,48.2,30.17,NE,49,10.0,10.0,94,0.00,,,0.00,meteohub,2013-05-09 11:11:00,
2013-05-10 00:16:00,49.6,48.0,30.17,NE,50,12.0,12.0,94,0.00,,,0.00,meteohub,2013-05-09 11:16:00,
2013-05-10 00:21:00,49.6,48.0,30.17,NE,47,12.0,12.0,94,0.00,,,0.00,meteohub,2013-05-09 11:21:00,
2013-05-10 00:27:00,49.8,47.8,30.17,NE,48,12.0,12.0,93,0.00,,,0.00,meteohub,2013-05-09 11:27:00,
2013-05-10 00:32:00,49.5,47.5,30.17,NE,53,9.0,12.0,93,0.00,,,0.00,meteohub,2013-05-09 11:32:00,
2013-05-10 00:37:00,49.1,47.5,30.17,NE,53,10.0,12.0,94,0.00,,,0.00,meteohub,2013-05-09 11:37:00,
2013-05-10 00:42:00,49.1,47.7,30.17,NE,52,10.0,12.0,95,0.00,,,0.00,meteohub,2013-05-09 11:42:00,
2013-05-10 00:47:00,49.5,48.0,30.17,NE,55,10.0,11.0,95,0.00,,,0.00,meteohub,2013-05-09 11:47:00,
2013-05-10 00:52:00,49.3,47.8,30.17,NE,51,11.0,12.0,95,0.00,,,0.00,meteohub,2013-05-09 11:52:00,
2013-05-10 00:57:00,49.5,48.0,30.17,NE,53,9.0,12.0,95,0.00,,,0.00,meteohub,2013-05-09 11:57:00,
2013-05-10 01:02:00,49.3,47.8,30.17,NE,49,10.0,11.0,95,0.00,,,0.00,meteohub,2013-05-09 12:02:00,
2013-05-10 01:07:00,49.1,47.7,30.17,NE,51,9.0,11.0,95,0.00,,,0.00,meteohub,2013-05-09 12:07:00,
2013-05-10 01:12:00,48.9,47.5,30.18,NE,51,9.0,11.0,95,0.00,,,0.00,meteohub,2013-05-09 12:12:00,
2013-05-10 01:17:00,48.7,47.3,30.18,NE,51,9.0,11.0,95,0.00,,,0.00,meteohub,2013-05-09 12:17:00,
2013-05-10 01:22:00,48.6,47.1,30.18,NE,53,9.0,11.0,95,0.00,,,0.00,meteohub,2013-05-09 12:22:00,
2013-05-10 01:27:00,48.7,47.3,30.17,NE,51,11.0,11.0,95,0.00,,,0.00,meteohub,2013-05-09 12:27:00,
2013-05-10 01:32:00,48.9,47.5,30.17,NE,52,9.0,11.0,95,0.00,,,0.00,meteohub,2013-05-09 12:32:00,
2013-05-10 01:37:00,48.9,47.3,30.17,NE,53,10.0,11.0,94,0.00,,,0.00,meteohub,2013-05-09 12:37:00,
2013-05-10 01:42:00,48.9,47.3,30.18,NE,54,9.0,11.0,94,0.00,,,0.00,meteohub,2013-05-09 12:42:00,
2013-05-10 01:47:00,48.7,47.1,30.18,NE,56,9.0,10.0,94,0.00,,,0.00,meteohub,2013-05-09 12:47:00,
2013-05-10 01:52:00,48.7,47.3,30.18,ENE,58,8.0,10.0,95,0.00,,,0.00,meteohub,2013-05-09 12:52:00,
2013-05-10 01:57:00,48.6,47.1,30.18,ENE,57,8.0,10.0,95,0.00,,,0.00,meteohub,2013-05-09 12:57:00,
2013-05-10 02:02:00,48.4,46.9,30.18,ENE,58,8.0,10.0,95,0.00,,,0.00,meteohub,2013-05-09 13:02:00,
2013-05-10 02:07:00,48.2,46.8,30.17,ENE,58,8.0,10.0,95,0.00,,,0.00,meteohub,2013-05-09 13:07:00,
2013-05-10 02:12:00,48.0,46.9,30.17,ENE,58,10.0,11.0,96,0.00,,,0.00,meteohub,2013-05-09 13:12:00,
2013-05-10 02:18:00,47.8,46.4,30.17,ENE,68,9.0,12.0,95,0.00,,,0.00,meteohub,2013-05-09 13:18:00,
2013-05-10 02:23:00,47.8,46.8,30.18,ENE,61,9.0,12.0,96,0.00,,,0.00,meteohub,2013-05-09 13:23:00,
2013-05-10 02:28:00,47.8,46.8,30.18,ENE,62,10.0,11.0,96,0.00,,,0.00,meteohub,2013-05-09 13:28:00,
2013-05-10 02:33:00,47.8,46.8,30.18,ENE,58,8.0,10.0,96,0.00,,,0.00,meteohub,2013-05-09 13:33:00,
2013-05-10 02:38:00,47.8,46.8,30.18,NE,56,9.0,10.0,96,0.00,,,0.00,meteohub,2013-05-09 13:38:00,
2013-05-10 02:43:00,47.7,46.6,30.18,ENE,60,9.0,10.0,96,0.00,,,0.00,meteohub,2013-05-09 13:43:00,
2013-05-10 02:48:00,47.7,46.9,30.19,ENE,58,8.0,10.0,97,0.00,,,0.00,meteohub,2013-05-09 13:48:00,
2013-05-10 02:53:00,47.7,46.9,30.19,ENE,57,8.0,10.0,97,0.00,,,0.00,meteohub,2013-05-09 13:53:00,
2013-05-10 02:58:00,47.7,46.9,30.19,ENE,58,7.0,10.0,97,0.00,,,0.00,meteohub,2013-05-09 13:58:00,
2013-05-10 03:03:00,47.7,46.9,30.19,NE,53,5.0,9.0,97,0.00,,,0.00,meteohub,2013-05-09 14:03:00,
2013-05-10 03:08:00,47.7,46.9,30.19,ENE,58,5.0,9.0,97,0.00,,,0.00,meteohub,2013-05-09 14:08:00,
2013-05-10 03:13:00,48.0,47.1,30.19,NE,46,4.0,9.0,97,0.00,,,0.00,meteohub,2013-05-09 14:13:00,
2013-05-10 03:18:00,48.2,47.1,30.19,NE,44,4.0,7.0,96,0.00,,,0.00,meteohub,2013-05-09 14:18:00,
2013-05-10 03:23:00,48.4,47.3,30.19,NE,48,3.0,7.0,96,0.00,,,0.00,meteohub,2013-05-09 14:23:00,
2013-05-10 03:28:00,48.6,47.5,30.19,NE,37,3.0,6.0,96,0.00,,,0.00,meteohub,2013-05-09 14:28:00,
2013-05-10 03:33:00,48.7,47.7,30.19,NE,44,4.0,5.0,96,0.00,,,0.00,meteohub,2013-05-09 14:33:00,
2013-05-10 03:38:00,49.3,48.2,30.19,East,96,2.0,5.0,96,0.00,,,0.00,meteohub,2013-05-09 14:38:00,
2013-05-10 03:43:00,49.6,48.2,30.19,East,82,1.0,5.0,95,0.00,,,0.00,meteohub,2013-05-09 14:43:00,
2013-05-10 03:48:00,50.5,49.1,30.19,ENE,70,0.0,5.0,95,0.00,,,0.00,meteohub,2013-05-09 14:48:00,
2013-05-10 03:53:00,51.3,48.7,30.20,NW,315,0.0,3.0,91,0.00,,,0.00,meteohub,2013-05-09 14:53:00,
2013-05-10 03:58:00,51.1,48.9,30.20,NNW,330,0.0,3.0,92,0.00,,,0.00,meteohub,2013-05-09 14:58:00,
2013-05-10 04:03:00,51.4,49.3,30.19,NNE,30,1.0,1.0,92,0.00,,,0.00,meteohub,2013-05-09 15:03:00,
2013-05-10 04:09:00,51.4,48.6,30.20,NE,40,3.0,3.0,90,0.00,,,0.00,meteohub,2013-05-09 15:09:00,
2013-05-10 04:14:00,51.6,49.1,30.20,NE,41,1.0,3.0,91,0.00,,,0.00,meteohub,2013-05-09 15:14:00,
2013-05-10 04:19:00,51.8,48.9,30.19,NE,41,4.0,4.0,90,0.00,,,0.00,meteohub,2013-05-09 15:19:00,
2013-05-10 04:24:00,51.8,49.3,30.20,ENE,68,0.0,3.0,91,0.00,,,0.00,meteohub,2013-05-09 15:24:00,
2013-05-10 04:29:00,52.5,49.6,30.20,SW,219,3.0,5.0,90,0.00,,,0.00,meteohub,2013-05-09 15:29:00,
2013-05-10 04:34:00,53.2,50.0,30.20,ESE,109,1.0,5.0,89,0.00,,,0.00,meteohub,2013-05-09 15:34:00,
2013-05-10 04:39:00,53.8,50.4,30.20,SSW,212,0.0,5.0,88,0.00,,,0.00,meteohub,2013-05-09 15:39:00,
2013-05-10 04:44:00,54.1,50.7,30.19,SE,136,1.0,3.0,88,0.00,,,0.00,meteohub,2013-05-09 15:44:00,
2013-05-10 04:49:00,54.0,50.2,30.19,ENE,59,2.0,2.0,87,0.00,,,0.00,meteohub,2013-05-09 15:49:00,
2013-05-10 04:54:00,53.4,50.0,30.19,NE,47,1.0,2.0,88,0.00,,,0.00,meteohub,2013-05-09 15:54:00,
2013-05-10 04:59:00,53.8,50.5,30.20,ESE,108,2.0,4.0,89,0.00,,,0.00,meteohub,2013-05-09 15:59:00,
2013-05-10 05:04:00,54.0,50.5,30.20,NE,47,1.0,4.0,88,0.00,,,0.00,meteohub,2013-05-09 16:04:00,
2013-05-10 05:09:00,54.3,51.1,30.19,SE,134,1.0,3.0,89,0.00,,,0.00,meteohub,2013-05-09 16:09:00,
2013-05-10 05:14:00,55.8,52.0,30.19,SW,217,0.0,3.0,87,0.00,,,0.00,meteohub,2013-05-09 16:14:00,
2013-05-10 05:19:00,55.6,51.1,30.19,North,359,0.0,3.0,85,0.00,,,0.00,meteohub,2013-05-09 16:19:00,
2013-05-10 05:24:00,55.0,51.3,30.19,ENE,72,2.0,3.0,87,0.00,,,0.00,meteohub,2013-05-09 16:24:00,
2013-05-10 05:29:00,54.9,51.1,30.19,ENE,70,0.0,3.0,87,0.00,,,0.00,meteohub,2013-05-09 16:29:00,
2013-05-10 05:34:00,55.0,51.3,30.19,SW,229,2.0,3.0,87,0.00,,,0.00,meteohub,2013-05-09 16:34:00,
2013-05-10 05:39:00,55.6,52.3,30.19,SW,219,1.0,3.0,89,0.00,,,0.00,meteohub,2013-05-09 16:39:00,
2013-05-10 05:44:00,55.6,51.4,30.19,NW,314,0.0,3.0,86,0.00,,,0.00,meteohub,2013-05-09 16:44:00,
2013-05-10 05:49:00,55.4,51.6,30.19,NNW,332,1.0,3.0,87,0.00,,,0.00,meteohub,2013-05-09 16:49:00,
2013-05-10 05:54:00,55.0,50.5,30.19,NNW,345,2.0,2.0,85,0.00,,,0.00,meteohub,2013-05-09 16:54:00,
2013-05-10 05:59:00,54.7,50.9,30.19,North,11,2.0,3.0,87,0.00,,,0.00,meteohub,2013-05-09 16:59:00,
2013-05-10 06:05:00,54.7,50.5,30.19,NE,50,0.0,3.0,86,0.00,,,0.00,meteohub,2013-05-09 17:05:00,
2013-05-10 06:10:00,54.9,50.7,30.19,NE,49,1.0,3.0,86,0.00,,,0.00,meteohub,2013-05-09 17:10:00,
2013-05-10 06:15:00,55.0,50.9,30.19,NNE,24,1.0,4.0,86,0.00,,,0.00,meteohub,2013-05-09 17:15:00,
2013-05-10 06:20:00,55.0,51.3,30.19,NE,41,1.0,5.0,87,0.00,,,0.00,meteohub,2013-05-09 17:20:00,
2013-05-10 06:25:00,54.7,50.9,30.19,ENE,58,1.0,5.0,87,0.00,,,0.00,meteohub,2013-05-09 17:25:00,
2013-05-10 06:30:00,54.7,50.9,30.19,ENE,59,2.0,5.0,87,0.00,,,0.00,meteohub,2013-05-09 17:30:00,
2013-05-10 06:35:00,54.9,51.1,30.19,NNE,23,2.0,5.0,87,0.00,,,0.00,meteohub,2013-05-09 17:35:00,
2013-05-10 06:40:00,55.2,51.8,30.19,NE,47,2.0,4.0,88,0.00,,,0.00,meteohub,2013-05-09 17:40:00,
2013-05-10 06:45:00,55.4,51.6,30.19,NE,39,1.0,4.0,87,0.00,,,0.00,meteohub,2013-05-09 17:45:00,
2013-05-10 06:50:00,55.9,51.8,30.19,North,349,3.0,4.0,86,0.00,,,0.00,meteohub,2013-05-09 17:50:00,
2013-05-10 06:55:00,55.8,52.0,30.19,NE,46,3.0,6.0,87,0.00,,,0.00,meteohub,2013-05-09 17:55:00,
2013-05-10 07:00:00,55.9,52.2,30.19,North,4,4.0,6.0,87,0.00,,,0.00,meteohub,2013-05-09 18:00:00,
2013-05-10 07:05:00,56.1,52.3,30.19,NNE,24,6.0,6.0,87,0.00,,,0.00,meteohub,2013-05-09 18:05:00,
2013-05-10 07:11:00,56.8,52.7,30.19,NNW,341,2.0,6.0,86,0.00,,,0.00,meteohub,2013-05-09 18:11:00,
2013-05-10 07:16:00,57.6,53.1,30.19,North,352,3.0,6.0,85,0.00,,,0.00,meteohub,2013-05-09 18:16:00,
2013-05-10 07:21:00,57.4,52.9,30.19,North,7,2.0,6.0,85,0.00,,,0.00,meteohub,2013-05-09 18:21:00,
2013-05-10 07:26:00,57.6,53.1,30.19,NNE,16,7.0,7.0,85,0.00,,,0.00,meteohub,2013-05-09 18:26:00,
2013-05-10 07:31:00,57.6,53.4,30.19,North,3,3.0,8.0,86,0.00,,,0.00,meteohub,2013-05-09 18:31:00,
2013-05-10 07:36:00,57.0,52.9,30.19,NNW,345,4.0,8.0,86,0.00,,,0.00,meteohub,2013-05-09 18:36:00,
2013-05-10 07:41:00,57.2,53.6,30.19,North,9,4.0,8.0,88,0.00,,,0.00,meteohub,2013-05-09 18:41:00,
2013-05-10 07:46:00,57.4,53.2,30.19,NW,324,3.0,7.0,86,0.00,,,0.00,meteohub,2013-05-09 18:46:00,
2013-05-10 07:51:00,57.6,53.8,30.19,NNE,22,5.0,8.0,87,0.00,,,0.00,meteohub,2013-05-09 18:51:00,
2013-05-10 07:56:00,57.4,53.8,30.19,NNE,30,0.0,8.0,88,0.00,,,0.00,meteohub,2013-05-09 18:56:00,
2013-05-10 08:01:00,58.3,54.1,30.19,NNE,30,4.0,8.0,86,0.00,,,0.00,meteohub,2013-05-09 19:01:00,
2013-05-10 08:06:00,58.5,54.3,30.19,NE,44,2.0,7.0,86,0.00,,,0.00,meteohub,2013-05-09 19:06:00,
2013-05-10 08:11:00,59.0,55.2,30.19,NNW,342,3.0,6.0,87,0.00,,,0.00,meteohub,2013-05-09 19:11:00,
2013-05-10 08:16:00,59.0,54.9,30.19,NE,40,4.0,6.0,86,0.00,,,0.00,meteohub,2013-05-09 19:16:00,
2013-05-10 08:21:00,58.8,54.7,30.19,NNE,15,6.0,9.0,86,0.00,,,0.00,meteohub,2013-05-09 19:21:00,
2013-05-10 08:26:00,59.2,55.4,30.19,NNE,33,4.0,9.0,87,0.00,,,0.00,meteohub,2013-05-09 19:26:00,
2013-05-10 08:32:00,59.0,54.5,30.18,North,1,5.0,9.0,85,0.00,,,0.00,meteohub,2013-05-09 19:32:00,
2013-05-10 08:37:00,59.4,55.2,30.19,North,4,4.0,9.0,86,0.00,,,0.00,meteohub,2013-05-09 19:37:00,
2013-05-10 08:42:00,59.5,55.4,30.18,WNW,303,2.0,9.0,86,0.00,,,0.00,meteohub,2013-05-09 19:42:00,
2013-05-10 08:47:00,60.3,56.1,30.18,NNE,30,6.0,8.0,86,0.00,,,0.00,meteohub,2013-05-09 19:47:00,
2013-05-10 08:52:00,60.6,55.4,30.18,NNW,342,3.0,8.0,83,0.00,,,0.00,meteohub,2013-05-09 19:52:00,
2013-05-10 08:57:00,60.6,56.5,30.18,NNW,335,3.0,8.0,86,0.00,,,0.00,meteohub,2013-05-09 19:57:00,
2013-05-10 09:02:00,61.3,56.1,30.18,NW,315,4.0,8.0,83,0.00,,,0.00,meteohub,2013-05-09 20:02:00,
2013-05-10 09:07:00,61.0,55.8,30.18,NW,307,4.0,9.0,83,0.00,,,0.00,meteohub,2013-05-09 20:07:00,
2013-05-10 09:12:00,61.0,56.1,30.18,NNE,19,2.0,9.0,84,0.00,,,0.00,meteohub,2013-05-09 20:12:00,
2013-05-10 09:17:00,61.7,56.8,30.18,North,7,8.0,9.0,84,0.00,,,0.00,meteohub,2013-05-09 20:17:00,
2013-05-10 09:22:00,61.9,55.9,30.18,NNE,30,6.0,13.0,81,0.00,,,0.00,meteohub,2013-05-09 20:22:00,
2013-05-10 09:27:00,61.9,55.9,30.18,North,10,5.0,13.0,81,0.00,,,0.00,meteohub,2013-05-09 20:27:00,
2013-05-10 09:32:00,62.2,57.0,30.18,NNE,21,7.0,13.0,83,0.00,,,0.00,meteohub,2013-05-09 20:32:00,
2013-05-10 09:37:00,63.0,57.0,30.17,North,356,8.0,12.0,81,0.00,,,0.00,meteohub,2013-05-09 20:37:00,
2013-05-10 09:42:00,63.3,56.7,30.17,NNE,27,6.0,9.0,79,0.00,,,0.00,meteohub,2013-05-09 20:42:00,
2013-05-10 09:47:00,63.7,55.9,30.17,NNE,15,8.0,10.0,76,0.00,,,0.00,meteohub,2013-05-09 20:47:00,
2013-05-10 09:52:00,64.0,56.7,30.17,NNE,19,8.0,11.0,77,0.00,,,0.00,meteohub,2013-05-09 20:52:00,
2013-05-10 09:57:00,64.6,57.6,30.17,NW,315,4.0,11.0,78,0.00,,,0.00,meteohub,2013-05-09 20:57:00,
2013-05-10 10:02:00,64.8,57.0,30.17,NNE,23,8.0,11.0,76,0.00,,,0.00,meteohub,2013-05-09 21:02:00,
2013-05-10 10:08:00,64.8,56.7,30.16,North,359,7.0,12.0,75,0.00,,,0.00,meteohub,2013-05-09 21:08:00,
2013-05-10 10:13:00,64.9,57.2,30.16,NNW,341,4.0,12.0,76,0.00,,,0.00,meteohub,2013-05-09 21:13:00,
2013-05-10 10:18:00,66.0,57.9,30.16,NE,42,2.0,11.0,75,0.00,,,0.00,meteohub,2013-05-09 21:18:00,
2013-05-10 10:23:00,66.0,58.3,30.16,NNE,25,5.0,10.0,76,0.00,,,0.00,meteohub,2013-05-09 21:23:00,
2013-05-10 10:28:00,66.0,57.6,30.16,North,356,5.0,10.0,74,0.00,,,0.00,meteohub,2013-05-09 21:28:00,
2013-05-10 10:33:00,66.6,56.8,30.16,North,354,5.0,12.0,71,0.00,,,0.00,meteohub,2013-05-09 21:33:00,
2013-05-10 10:38:00,66.6,56.1,30.16,NE,48,5.0,12.0,69,0.00,,,0.00,meteohub,2013-05-09 21:38:00,
2013-05-10 10:43:00,66.7,56.7,30.15,NW,322,5.0,12.0,70,0.00,,,0.00,meteohub,2013-05-09 21:43:00,
2013-05-10 10:48:00,66.9,56.8,30.15,North,5,5.0,9.0,70,0.00,,,0.00,meteohub,2013-05-09 21:48:00,
2013-05-10 10:53:00,67.5,57.4,30.15,NNE,25,6.0,9.0,70,0.00,,,0.00,meteohub,2013-05-09 21:53:00,
2013-05-10 10:58:00,67.6,56.7,30.15,NNW,343,4.0,9.0,68,0.00,,,0.00,meteohub,2013-05-09 21:58:00,
2013-05-10 11:03:00,68.4,56.5,30.14,NNE,13,5.0,11.0,66,0.00,,,0.00,meteohub,2013-05-09 22:03:00,
2013-05-10 11:08:00,68.5,55.4,30.14,North,11,8.0,12.0,63,0.00,,,0.00,meteohub,2013-05-09 22:08:00,
2013-05-10 11:13:00,68.2,55.6,30.14,WNW,290,7.0,12.0,64,0.00,,,0.00,meteohub,2013-05-09 22:13:00,
2013-05-10 11:18:00,68.7,56.8,30.14,NNE,25,5.0,12.0,66,0.00,,,0.00,meteohub,2013-05-09 22:18:00,
2013-05-10 11:23:00,69.1,56.5,30.14,ENE,63,5.0,12.0,64,0.00,,,0.00,meteohub,2013-05-09 22:23:00,
2013-05-10 11:28:00,68.7,55.6,30.14,NNE,27,4.0,13.0,63,0.00,,,0.00,meteohub,2013-05-09 22:28:00,
2013-05-10 11:33:00,69.6,55.0,30.13,North,5,8.0,13.0,60,0.00,,,0.00,meteohub,2013-05-09 22:33:00,
2013-05-10 11:39:00,69.4,55.4,30.13,NE,56,9.0,13.0,61,0.00,,,0.00,meteohub,2013-05-09 22:39:00,
2013-05-10 11:44:00,69.4,54.0,30.13,North,6,4.0,13.0,58,0.00,,,0.00,meteohub,2013-05-09 22:44:00,
2013-05-10 11:49:00,70.2,54.7,30.13,North,4,11.0,15.0,58,0.00,,,0.00,meteohub,2013-05-09 22:49:00,
2013-05-10 11:54:00,70.5,53.1,30.12,North,11,11.0,15.0,54,0.00,,,0.00,meteohub,2013-05-09 22:54:00,
2013-05-10 11:59:00,70.3,50.4,30.12,NE,35,11.0,15.0,49,0.00,,,0.00,meteohub,2013-05-09 22:59:00,
2013-05-10 12:04:00,70.3,49.6,30.12,NNE,28,12.0,16.0,48,0.00,,,0.00,meteohub,2013-05-09 23:04:00,
2013-05-10 12:09:00,70.7,51.6,30.12,NNE,14,8.0,18.0,51,0.00,,,0.00,meteohub,2013-05-09 23:09:00,
2013-05-10 12:14:00,70.9,50.7,30.12,NNE,13,13.0,18.0,49,0.00,,,0.00,meteohub,2013-05-09 23:14:00,
2013-05-10 12:19:00,70.7,48.9,30.12,NNE,32,12.0,18.0,46,0.00,,,0.00,meteohub,2013-05-09 23:19:00,
2013-05-10 12:24:00,70.7,50.0,30.12,NNE,30,14.0,19.0,48,0.00,,,0.00,meteohub,2013-05-09 23:24:00,
2013-05-10 12:29:00,70.5,50.9,30.12,NNE,13,14.0,19.0,50,0.00,,,0.00,meteohub,2013-05-09 23:29:00,
2013-05-10 12:34:00,70.9,51.3,30.12,NE,46,14.0,20.0,50,0.00,,,0.00,meteohub,2013-05-09 23:34:00,
2013-05-10 12:39:00,71.1,50.9,30.12,NNE,32,15.0,20.0,49,0.00,,,0.00,meteohub,2013-05-09 23:39:00,
2013-05-10 12:44:00,70.9,50.7,30.11,NNE,14,9.0,18.0,49,0.00,,,0.00,meteohub,2013-05-09 23:44:00,
2013-05-10 12:49:00,70.9,51.8,30.11,NNE,22,12.0,17.0,51,0.00,,,0.00,meteohub,2013-05-09 23:49:00,
2013-05-10 12:54:00,70.9,51.8,30.11,NE,53,7.0,17.0,51,0.00,,,0.00,meteohub,2013-05-09 23:54:00,
2013-05-10 12:59:00,71.1,52.5,30.11,NE,56,8.0,17.0,52,0.00,,,0.00,meteohub,2013-05-09 23:59:00,
2013-05-10 13:04:00,70.9,50.7,30.11,NNE,17,10.0,17.0,49,0.00,,,0.00,meteohub,2013-05-10 00:04:00,
2013-05-10 13:09:00,71.1,50.9,30.11,NNE,18,12.0,17.0,49,0.00,,,0.00,meteohub,2013-05-10 00:09:00,
2013-05-10 13:14:00,71.2,51.6,30.11,NNE,13,9.0,17.0,50,0.00,,,0.00,meteohub,2013-05-10 00:14:00,
2013-05-10 13:19:00,71.2,51.6,30.11,NNE,21,12.0,16.0,50,0.00,,,0.00,meteohub,2013-05-10 00:19:00,
2013-05-10 13:25:00,71.1,52.0,30.11,NNE,24,14.0,16.0,51,0.00,,,0.00,meteohub,2013-05-10 00:25:00,
2013-05-10 13:30:00,71.1,51.4,30.11,North,359,12.0,16.0,50,0.00,,,0.00,meteohub,2013-05-10 00:30:00,
2013-05-10 13:35:00,71.1,51.4,30.11,NE,48,10.0,16.0,50,0.00,,,0.00,meteohub,2013-05-10 00:35:00,
2013-05-10 13:40:00,70.9,51.8,30.11,NE,53,11.0,16.0,51,0.00,,,0.00,meteohub,2013-05-10 00:40:00,
2013-05-10 13:45:00,71.1,51.4,30.11,ENE,71,11.0,16.0,50,0.00,,,0.00,meteohub,2013-05-10 00:45:00,
2013-05-10 13:50:00,70.9,51.8,30.11,NE,41,12.0,16.0,51,0.00,,,0.00,meteohub,2013-05-10 00:50:00,
2013-05-10 13:55:00,70.9,52.3,30.11,NNE,26,11.0,16.0,52,0.00,,,0.00,meteohub,2013-05-10 00:55:00,
2013-05-10 14:00:00,70.9,51.8,30.11,NNE,29,14.0,16.0,51,0.00,,,0.00,meteohub,2013-05-10 01:00:00,
2013-05-10 14:05:00,70.9,51.8,30.11,NE,39,14.0,16.0,51,0.00,,,0.00,meteohub,2013-05-10 01:05:00,
2013-05-10 14:10:00,70.9,51.8,30.10,ENE,65,14.0,16.0,51,0.00,,,0.00,meteohub,2013-05-10 01:10:00,
2013-05-10 14:15:00,70.9,52.3,30.10,NE,43,13.0,17.0,52,0.00,,,0.00,meteohub,2013-05-10 01:15:00,
2013-05-10 14:20:00,70.7,52.7,30.10,North,354,10.0,17.0,53,0.00,,,0.00,meteohub,2013-05-10 01:20:00,
2013-05-10 14:25:00,70.7,52.7,30.10,NNE,18,11.0,15.0,53,0.00,,,0.00,meteohub,2013-05-10 01:25:00,
2013-05-10 14:30:00,70.5,51.4,30.10,NE,37,15.0,19.0,51,0.00,,,0.00,meteohub,2013-05-10 01:30:00,
2013-05-10 14:35:00,70.5,51.4,30.10,NE,49,11.0,19.0,51,0.00,,,0.00,meteohub,2013-05-10 01:35:00,
2013-05-10 14:40:00,70.5,52.0,30.10,NE,49,10.0,19.0,52,0.00,,,0.00,meteohub,2013-05-10 01:40:00,
2013-05-10 14:45:00,70.5,52.5,30.10,NE,47,10.0,16.0,53,0.00,,,0.00,meteohub,2013-05-10 01:45:00,
2013-05-10 14:50:00,70.5,52.5,30.10,NNE,33,9.0,14.0,53,0.00,,,0.00,meteohub,2013-05-10 01:50:00,
2013-05-10 14:55:00,70.5,52.5,30.10,NE,50,9.0,15.0,53,0.00,,,0.00,meteohub,2013-05-10 01:55:00,
2013-05-10 15:00:00,70.3,51.4,30.10,NE,49,14.0,15.0,51,0.00,,,0.00,meteohub,2013-05-10 02:00:00,
2013-05-10 15:05:00,70.3,51.8,30.10,NE,41,6.0,15.0,52,0.00,,,0.00,meteohub,2013-05-10 02:05:00,
2013-05-10 15:10:00,70.3,51.4,30.10,NE,49,14.0,14.0,51,0.00,,,0.00,meteohub,2013-05-10 02:10:00,
2013-05-10 15:16:00,70.3,50.9,30.10,NE,47,13.0,14.0,50,0.00,,,0.00,meteohub,2013-05-10 02:16:00,
2013-05-10 15:21:00,70.2,51.3,30.10,NE,44,13.0,14.0,51,0.00,,,0.00,meteohub,2013-05-10 02:21:00,
2013-05-10 15:26:00,70.2,50.7,30.10,NE,49,12.0,14.0,50,0.00,,,0.00,meteohub,2013-05-10 02:26:00,
2013-05-10 15:31:00,70.2,50.7,30.10,NE,44,10.0,14.0,50,0.00,,,0.00,meteohub,2013-05-10 02:31:00,
2013-05-10 15:36:00,70.2,50.7,30.10,NE,44,12.0,14.0,50,0.00,,,0.00,meteohub,2013-05-10 02:36:00,
2013-05-10 15:41:00,70.2,50.7,30.10,NE,50,11.0,14.0,50,0.00,,,0.00,meteohub,2013-05-10 02:41:00,
2013-05-10 15:46:00,70.2,50.7,30.10,NE,45,10.0,14.0,50,0.00,,,0.00,meteohub,2013-05-10 02:46:00,
2013-05-10 15:51:00,70.0,50.5,30.10,NE,47,11.0,14.0,50,0.00,,,0.00,meteohub,2013-05-10 02:51:00,
2013-05-10 15:56:00,70.0,50.5,30.10,NE,46,13.0,14.0,50,0.00,,,0.00,meteohub,2013-05-10 02:56:00,
2013-05-10 16:01:00,70.0,50.5,30.10,NE,53,14.0,16.0,50,0.00,,,0.00,meteohub,2013-05-10 03:01:00,
2013-05-10 16:06:00,70.0,50.5,30.10,NE,41,16.0,16.0,50,0.00,,,0.00,meteohub,2013-05-10 03:06:00,
2013-05-10 16:11:00,70.0,50.5,30.10,NE,46,13.0,17.0,50,0.00,,,0.00,meteohub,2013-05-10 03:11:00,
2013-05-10 16:16:00,70.0,50.5,30.11,NE,53,10.0,17.0,50,0.00,,,0.00,meteohub,2013-05-10 03:16:00,
2013-05-10 16:21:00,69.8,50.4,30.11,NE,47,11.0,17.0,50,0.00,,,0.00,meteohub,2013-05-10 03:21:00,
2013-05-10 16:26:00,69.8,50.4,30.11,NE,36,11.0,16.0,50,0.00,,,0.00,meteohub,2013-05-10 03:26:00,
2013-05-10 16:31:00,69.8,50.4,30.11,NE,56,11.0,16.0,50,0.00,,,0.00,meteohub,2013-05-10 03:31:00,
2013-05-10 16:36:00,69.6,49.6,30.11,NE,53,10.0,15.0,49,0.00,,,0.00,meteohub,2013-05-10 03:36:00,
2013-05-10 16:41:00,69.8,49.3,30.12,NNE,26,9.0,14.0,48,0.00,,,0.00,meteohub,2013-05-10 03:41:00,
2013-05-10 16:47:00,70.0,49.5,30.12,NE,45,10.0,14.0,48,0.00,,,0.00,meteohub,2013-05-10 03:47:00,
2013-05-10 16:52:00,70.0,48.7,30.12,NE,55,12.0,14.0,47,0.00,,,0.00,meteohub,2013-05-10 03:52:00,
2013-05-10 16:57:00,70.0,48.2,30.12,NE,51,12.0,14.0,46,0.00,,,0.00,meteohub,2013-05-10 03:57:00,
2013-05-10 17:01:00,70.2,48.4,30.12,NE,51,12.0,14.0,46,0.00,,,0.00,meteohub,2013-05-10 04:01:00,
2013-05-10 17:03:00,70.2,48.4,30.12,NE,47,13.0,14.0,46,0.00,,,0.00,meteohub,2013-05-10 04:03:00,
2013-05-10 17:05:00,70.2,48.4,30.12,NE,50,12.0,14.0,46,0.00,,,0.00,meteohub,2013-05-10 04:05:00,
2013-05-10 17:06:00,70.2,48.4,30.12,NE,51,12.0,14.0,46,0.00,,,0.00,meteohub,2013-05-10 04:06:00,
2013-05-10 17:11:00,70.2,48.4,30.12,NE,50,13.0,13.0,46,0.00,,,0.00,meteohub,2013-05-10 04:11:00,
2013-05-10 17:16:00,70.0,48.7,30.12,NE,43,12.0,14.0,47,0.00,,,0.00,meteohub,2013-05-10 04:16:00,
2013-05-10 17:21:00,70.0,48.7,30.12,NE,41,10.0,14.0,47,0.00,,,0.00,meteohub,2013-05-10 04:21:00,
2013-05-10 17:26:00,70.0,48.7,30.12,NE,41,12.0,14.0,47,0.00,,,0.00,meteohub,2013-05-10 04:26:00,
2013-05-10 17:31:00,69.8,48.7,30.12,NE,49,13.0,13.0,47,0.00,,,0.00,meteohub,2013-05-10 04:31:00,
2013-05-10 17:36:00,69.8,48.7,30.12,NE,45,13.0,14.0,47,0.00,,,0.00,meteohub,2013-05-10 04:36:00,
2013-05-10 17:41:00,69.6,48.6,30.12,NE,43,12.0,15.0,47,0.00,,,0.00,meteohub,2013-05-10 04:41:00,
2013-05-10 17:47:00,69.6,49.1,30.12,NE,36,12.0,15.0,48,0.00,,,0.00,meteohub,2013-05-10 04:47:00,
2013-05-10 17:52:00,69.4,48.9,30.13,NNE,24,9.0,15.0,48,0.00,,,0.00,meteohub,2013-05-10 04:52:00,
2013-05-10 17:57:00,69.4,48.9,30.13,NNE,20,9.0,14.0,48,0.00,,,0.00,meteohub,2013-05-10 04:57:00,
2013-05-10 18:02:00,69.4,48.9,30.13,North,8,8.0,14.0,48,0.00,,,0.00,meteohub,2013-05-10 05:02:00,
2013-05-10 18:07:00,69.3,49.3,30.13,NNE,13,10.0,12.0,49,0.00,,,0.00,meteohub,2013-05-10 05:07:00,
2013-05-10 18:12:00,68.9,49.5,30.13,NNE,32,10.0,12.0,50,0.00,,,0.00,meteohub,2013-05-10 05:12:00,
2013-05-10 18:17:00,68.4,50.0,30.13,NNE,21,4.0,12.0,52,0.00,,,0.00,meteohub,2013-05-10 05:17:00,
2013-05-10 18:22:00,68.2,51.4,30.13,NNE,15,6.0,11.0,55,0.00,,,0.00,meteohub,2013-05-10 05:22:00,
2013-05-10 18:27:00,68.0,51.3,30.13,North,356,8.0,11.0,55,0.00,,,0.00,meteohub,2013-05-10 05:27:00,
2013-05-10 18:32:00,67.6,52.3,30.13,North,6,11.0,13.0,58,0.00,,,0.00,meteohub,2013-05-10 05:32:00,
2013-05-10 18:37:00,67.3,53.4,30.13,NNW,335,8.0,13.0,61,0.00,,,0.00,meteohub,2013-05-10 05:37:00,
2013-05-10 18:42:00,66.7,53.2,30.13,NW,321,8.0,13.0,62,0.00,,,0.00,meteohub,2013-05-10 05:42:00,
2013-05-10 18:47:00,66.4,53.4,30.13,NW,321,6.0,12.0,63,0.00,,,0.00,meteohub,2013-05-10 05:47:00,
2013-05-10 18:52:00,66.0,53.1,30.13,North,356,7.0,10.0,63,0.00,,,0.00,meteohub,2013-05-10 05:52:00,
2013-05-10 18:57:00,66.0,53.1,30.13,NW,321,9.0,10.0,63,0.00,,,0.00,meteohub,2013-05-10 05:57:00,
2013-05-10 19:02:00,65.1,52.7,30.13,NNW,339,12.0,12.0,64,0.00,,,0.00,meteohub,2013-05-10 06:02:00,
2013-05-10 19:07:00,64.6,52.5,30.13,North,359,14.0,14.0,65,0.00,,,0.00,meteohub,2013-05-10 06:07:00,
2013-05-10 19:12:00,64.4,52.0,30.13,NNW,335,9.0,16.0,64,0.00,,,0.00,meteohub,2013-05-10 06:12:00,
2013-05-10 19:17:00,64.4,51.6,30.13,NNE,13,8.0,16.0,63,0.00,,,0.00,meteohub,2013-05-10 06:17:00,
2013-05-10 19:23:00,64.8,51.4,30.13,NNE,19,13.0,16.0,62,0.00,,,0.00,meteohub,2013-05-10 06:23:00,
2013-05-10 19:28:00,64.6,51.6,30.13,North,11,12.0,17.0,63,0.00,,,0.00,meteohub,2013-05-10 06:28:00,
2013-05-10 19:33:00,64.2,50.9,30.14,North,10,15.0,17.0,62,0.00,,,0.00,meteohub,2013-05-10 06:33:00,
2013-05-10 19:38:00,64.2,51.4,30.14,NNE,16,13.0,17.0,63,0.00,,,0.00,meteohub,2013-05-10 06:38:00,
2013-05-10 19:43:00,64.0,51.3,30.13,North,356,10.0,17.0,63,0.00,,,0.00,meteohub,2013-05-10 06:43:00,
2013-05-10 19:48:00,64.2,51.4,30.14,NNE,18,13.0,18.0,63,0.00,,,0.00,meteohub,2013-05-10 06:48:00,
2013-05-10 19:53:00,64.4,50.7,30.14,North,354,14.0,18.0,61,0.00,,,0.00,meteohub,2013-05-10 06:53:00,
2013-05-10 19:58:00,64.6,50.9,30.14,NNE,14,13.0,18.0,61,0.00,,,0.00,meteohub,2013-05-10 06:58:00,
2013-05-10 20:03:00,64.4,51.1,30.14,North,3,17.0,18.0,62,0.00,,,0.00,meteohub,2013-05-10 07:03:00,
2013-05-10 20:08:00,64.2,51.4,30.14,NNE,28,12.0,18.0,63,0.00,,,0.00,meteohub,2013-05-10 07:08:00,
2013-05-10 20:13:00,64.0,51.3,30.14,NNE,28,16.0,19.0,63,0.00,,,0.00,meteohub,2013-05-10 07:13:00,
2013-05-10 20:18:00,63.7,51.3,30.14,NNE,23,14.0,19.0,64,0.00,,,0.00,meteohub,2013-05-10 07:18:00,
2013-05-10 20:23:00,63.9,51.1,30.14,NNE,25,14.0,19.0,63,0.00,,,0.00,meteohub,2013-05-10 07:23:00,
2013-05-10 20:28:00,64.2,50.5,30.14,NNE,27,14.0,17.0,61,0.00,,,0.00,meteohub,2013-05-10 07:28:00,
2013-05-10 20:33:00,64.0,50.7,30.14,NNE,20,8.0,17.0,62,0.00,,,0.00,meteohub,2013-05-10 07:33:00,
2013-05-10 20:38:00,63.7,50.9,30.14,NE,51,10.0,17.0,63,0.00,,,0.00,meteohub,2013-05-10 07:38:00,
2013-05-10 20:43:00,63.9,51.1,30.15,NNE,27,12.0,17.0,63,0.00,,,0.00,meteohub,2013-05-10 07:43:00,
2013-05-10 20:48:00,63.9,50.5,30.15,NE,45,12.0,18.0,62,0.00,,,0.00,meteohub,2013-05-10 07:48:00,
2013-05-10 20:53:00,64.0,50.4,30.15,NE,47,17.0,18.0,61,0.00,,,0.00,meteohub,2013-05-10 07:53:00,
2013-05-10 20:59:00,63.9,50.2,30.16,NE,41,13.0,18.0,61,0.00,,,0.00,meteohub,2013-05-10 07:59:00,
2013-05-10 21:04:00,64.0,50.7,30.15,NE,56,17.0,17.0,62,0.00,,,0.00,meteohub,2013-05-10 08:04:00,
2013-05-10 21:09:00,63.9,50.5,30.15,NE,54,14.0,17.0,62,0.00,,,0.00,meteohub,2013-05-10 08:09:00,
2013-05-10 21:14:00,63.9,50.5,30.15,NE,49,14.0,18.0,62,0.00,,,0.00,meteohub,2013-05-10 08:14:00,
2013-05-10 21:19:00,63.7,50.4,30.15,NE,54,15.0,18.0,62,0.00,,,0.00,meteohub,2013-05-10 08:19:00,
2013-05-10 21:24:00,63.3,50.5,30.16,NE,50,13.0,18.0,63,0.00,,,0.00,meteohub,2013-05-10 08:24:00,
2013-05-10 21:29:00,63.5,50.7,30.16,ENE,58,11.0,17.0,63,0.00,,,0.00,meteohub,2013-05-10 08:29:00,
2013-05-10 21:34:00,63.3,50.5,30.16,NE,51,13.0,17.0,63,0.00,,,0.00,meteohub,2013-05-10 08:34:00,
2013-05-10 21:39:00,63.1,50.4,30.17,NE,50,12.0,16.0,63,0.00,,,0.00,meteohub,2013-05-10 08:39:00,
2013-05-10 21:44:00,63.3,50.5,30.16,NE,53,12.0,16.0,63,0.00,,,0.00,meteohub,2013-05-10 08:44:00,
2013-05-10 21:49:00,63.3,50.5,30.16,NE,53,12.0,14.0,63,0.00,,,0.00,meteohub,2013-05-10 08:49:00,
2013-05-10 21:54:00,63.7,50.9,30.17,NE,51,12.0,13.0,63,0.00,,,0.00,meteohub,2013-05-10 08:54:00,
2013-05-10 21:59:00,63.7,50.9,30.17,NE,51,11.0,14.0,63,0.00,,,0.00,meteohub,2013-05-10 08:59:00,
2013-05-10 22:04:00,63.7,50.4,30.17,NE,52,11.0,14.0,62,0.00,,,0.00,meteohub,2013-05-10 09:04:00,
2013-05-10 22:09:00,63.7,50.4,30.17,NE,53,11.0,14.0,62,0.00,,,0.00,meteohub,2013-05-10 09:09:00,
2013-05-10 22:14:00,63.7,50.4,30.16,NE,51,12.0,12.0,62,0.00,,,0.00,meteohub,2013-05-10 09:14:00,
2013-05-10 22:19:00,63.3,50.5,30.16,NE,55,11.0,13.0,63,0.00,,,0.00,meteohub,2013-05-10 09:19:00,
2013-05-10 22:24:00,63.3,50.0,30.16,NE,56,13.0,13.0,62,0.00,,,0.00,meteohub,2013-05-10 09:24:00,
2013-05-10 22:29:00,63.3,50.0,30.16,NE,54,14.0,14.0,62,0.00,,,0.00,meteohub,2013-05-10 09:29:00,
2013-05-10 22:34:00,63.3,50.5,30.16,NE,56,13.0,15.0,63,0.00,,,0.00,meteohub,2013-05-10 09:34:00,
2013-05-10 22:40:00,63.0,50.5,30.17,NE,53,11.0,16.0,64,0.00,,,0.00,meteohub,2013-05-10 09:40:00,
2013-05-10 22:45:00,62.6,50.2,30.17,NE,53,12.0,16.0,64,0.00,,,0.00,meteohub,2013-05-10 09:45:00,
2013-05-10 22:50:00,62.8,50.4,30.16,NE,56,12.0,13.0,64,0.00,,,0.00,meteohub,2013-05-10 09:50:00,
2013-05-10 22:55:00,62.8,50.4,30.17,NE,56,10.0,13.0,64,0.00,,,0.00,meteohub,2013-05-10 09:55:00,
2013-05-10 23:00:00,62.6,50.2,30.16,ENE,58,15.0,15.0,64,0.00,,,0.00,meteohub,2013-05-10 10:00:00,
2013-05-10 23:05:00,62.4,50.5,30.16,ENE,58,14.0,16.0,65,0.00,,,0.00,meteohub,2013-05-10 10:05:00,
2013-05-10 23:10:00,62.4,50.5,30.16,ENE,63,10.0,16.0,65,0.00,,,0.00,meteohub,2013-05-10 10:10:00,
2013-05-10 23:15:00,62.4,50.5,30.17,ENE,58,8.0,16.0,65,0.00,,,0.00,meteohub,2013-05-10 10:15:00,
2013-05-10 23:20:00,62.2,50.4,30.17,ENE,57,10.0,14.0,65,0.00,,,0.00,meteohub,2013-05-10 10:20:00,
2013-05-10 23:25:00,62.1,50.2,30.17,ENE,75,11.0,13.0,65,0.00,,,0.00,meteohub,2013-05-10 10:25:00,
2013-05-10 23:30:00,62.1,50.2,30.17,ENE,60,9.0,12.0,65,0.00,,,0.00,meteohub,2013-05-10 10:30:00,
2013-05-10 23:35:00,62.2,49.1,30.16,ENE,62,10.0,12.0,62,0.00,,,0.00,meteohub,2013-05-10 10:35:00,
2013-05-10 23:40:00,62.4,48.7,30.17,ENE,62,9.0,12.0,61,0.00,,,0.00,meteohub,2013-05-10 10:40:00,
2013-05-10 23:45:00,62.4,48.4,30.17,ENE,63,7.0,11.0,60,0.00,,,0.00,meteohub,2013-05-10 10:45:00,
2013-05-10 23:50:00,62.6,48.6,30.16,East,79,6.0,10.0,60,0.00,,,0.00,meteohub,2013-05-10 10:50:00,
2013-05-10 23:56:00,63.1,48.6,30.16,East,86,8.0,9.0,59,0.00,,,0.00,meteohub,2013-05-10 10:56:00,